K6HN Weather Reports


time (UTC)temp
F
wind
direction
speed
knots
gust
knots
rain 1hr
in
rain 24hr
in
rain mn
in
humidity
%
barometer
mb
20260507035759 53 270 2.6 7.8 0.00 0.00 0.00 52 1005.1
20260507034259 53 261 1.7 4.3 0.00 0.00 0.00 52 1005.1
20260507032759 53 337 3.5 7.0 0.00 0.00 0.00 52 1005.1
20260507031259 53 310 2.6 5.2 0.00 0.00 0.00 52 1005.1
20260507025759 53 308 4.3 6.1 0.00 0.00 0.00 52 1004.7
20260507024259 53 308 3.5 5.2 0.00 0.00 0.00 52 1004.7
20260507022759 53 329 3.5 4.3 0.00 0.00 0.00 52 1004.7
20260507021259 54 313 2.6 4.3 0.00 0.00 0.00 52 1004.7
20260507015759 54 283 2.6 7.8 0.00 0.00 0.00 52 1004.7
20260507014259 54 254 7.0 9.6 0.00 0.00 0.00 52 1005.1
20260507012759 54 346 1.7 5.2 0.00 0.00 0.00 52 1004.7
20260507011259 54 277 2.6 6.1 0.00 0.00 0.00 52 1004.7
20260507005759 55 304 2.6 5.2 0.00 0.00 0.00 51 1004.7
20260507004259 55 312 4.3 7.8 0.00 0.00 0.00 52 1004.7
20260507002759 55 333 2.6 7.0 0.00 0.00 0.00 52 1004.7
20260507001259 55 302 3.5 7.0 0.00 0.00 0.00 52 1004.7
20260506235759 55 298 3.5 9.6 0.00 0.00 0.00 52 1004.7
20260506234259 56 315 5.2 7.0 0.00 0.00 0.00 52 1005.1
20260506232759 56 325 3.5 6.1 0.00 0.00 0.00 52 1005.1
20260506231259 56 311 5.2 7.8 0.00 0.00 0.00 52 1005.1
20260506225759 56 50 0.9 5.2 0.00 0.00 0.00 52 1005.1
20260506224259 56 321 4.3 5.2 0.00 0.00 0.00 53 1005.1
20260506222759 57 274 4.3 7.8 0.00 0.00 0.00 53 1005.4
20260506221259 58 268 5.2 8.7 0.00 0.00 0.00 54 1005.4
20260506215759 58 325 4.3 6.1 0.00 0.00 0.00 52 1005.8
20260506214259 59 329 2.6 7.8 0.00 0.00 0.00 53 1005.8
20260506212759 59 277 1.7 6.1 0.00 0.00 0.00 53 1005.8
20260506211259 59 291 2.6 7.8 0.00 0.00 0.00 53 1005.8
20260506205759 59 282 1.7 6.1 0.00 0.00 0.00 52 1005.8
20260506204259 60 313 3.5 5.2 0.00 0.00 0.00 51 1005.8
20260506202759 60 289 2.6 7.8 0.00 0.00 0.00 51 1005.8
20260506201259 61 275 3.5 8.7 0.00 0.00 0.00 51 1005.8
20260506195759 60 274 1.7 7.0 0.00 0.00 0.00 50 1006.1
20260506194259 60 323 0.9 4.3 0.00 0.00 0.00 50 1006.1
20260506192759 59 320 2.6 7.0 0.00 0.00 0.00 52 1006.1
20260506191259 59 315 2.6 7.0 0.00 0.00 0.00 50 1006.1
20260506185759 59 315 7.0 9.6 0.00 0.00 0.00 51 1006.4
20260506184259 58 296 1.7 6.1 0.00 0.00 0.00 50 1006.4
20260506182759 58 296 2.6 4.3 0.00 0.00 0.00 51 1006.1
20260506181259 57 261 2.6 7.0 0.00 0.00 0.00 52 1006.4
20260506175759 57 284 0.9 1.7 0.00 0.00 0.00 52 1006.1
20260506174259 57 238 0.9 7.0 0.00 0.00 0.00 51 1006.1
20260506172759 56 344 4.3 6.1 0.00 0.00 0.00 52 1006.4
20260506171259 57 335 3.5 6.1 0.00 0.00 0.00 50 1006.1
20260506165759 56 307 0.9 5.2 0.00 0.00 0.00 52 1006.1
20260506164259 56 325 2.6 4.3 0.00 0.00 0.00 52 1006.1
20260506162759 55 309 3.5 4.3 0.00 0.00 0.00 52 1006.1
20260506161259 55 290 0.9 4.3 0.00 0.00 0.00 52 1006.1
20260506155759 55 328 1.7 4.3 0.00 0.00 0.00 52 1006.4
20260506154259 54 292 1.7 2.6 0.00 0.00 0.00 52 1005.8
20260506152759 54 283 0.9 4.3 0.00 0.00 0.00 52 1006.1
20260506151259 54 311 0.0 2.6 0.00 0.00 0.00 52 1005.8
20260506145759 54 330 3.5 5.2 0.00 0.00 0.00 52 1006.1
20260506144259 54 314 0.0 0.9 0.00 0.00 0.00 52 1005.8
20260506142759 54 301 0.0 0.9 0.00 0.00 0.00 52 1005.8
20260506141259 54 299 0.9 1.7 0.00 0.00 0.00 52 1005.8
20260506135759 54 304 0.9 1.7 0.00 0.00 0.00 52 1005.4
20260506134259 54 328 0.0 1.7 0.00 0.00 0.00 52 1005.4
20260506132759 54 253 0.9 0.9 0.00 0.00 0.00 52 1005.1
20260506131259 54 251 0.9 1.7 0.00 0.00 0.00 52 1005.4
20260506125759 54 297 0.9 1.7 0.00 0.00 0.00 52 1005.1
20260506124259 54 283 0.9 0.9 0.00 0.00 0.00 52 1005.1
20260506122759 54 289 0.0 1.7 0.00 0.00 0.00 52 1005.1
20260506121259 54 283 0.9 1.7 0.00 0.00 0.00 51 1004.7
20260506115759 54 277 0.0 0.9 0.00 0.00 0.00 50 1004.7
20260506114259 54 256 0.0 1.7 0.00 0.00 0.00 52 1004.4
20260506112759 54 275 0.9 2.6 0.00 0.00 0.00 52 1004.4
20260506111259 54 257 0.9 1.7 0.00 0.00 0.00 51 1004.4
20260506105759 54 259 0.9 1.7 0.00 0.00 0.00 52 1004.4
20260506104259 54 243 0.9 2.6 0.00 0.00 0.00 53 1004.1
20260506102759 54 273 0.9 4.3 0.00 0.00 0.00 53 1004.1
20260506101259 54 271 1.7 1.7 0.00 0.00 0.00 52 1004.4
20260506095759 54 281 1.7 2.6 0.00 0.00 0.00 53 1004.4
20260506094259 54 294 1.7 2.6 0.00 0.00 0.00 54 1004.4
20260506092759 54 249 0.9 1.7 0.00 0.00 0.00 54 1004.4
20260506091259 54 279 0.9 1.7 0.00 0.00 0.00 53 1004.1
20260506085759 54 256 0.9 2.6 0.00 0.00 0.00 54 1004.4
20260506084259 54 276 1.7 4.3 0.00 0.00 0.00 54 1004.4
20260506072759 54 272 1.7 2.6 0.00 0.00 0.11 54 1004.1
20260506071259 54 296 1.7 2.6 0.00 0.00 0.11 54 1004.1
20260506061259 54 272 1.7 1.7 0.00 0.00 0.11 54 1003.4
20260506051259 55 283 0.0 1.7 0.00 0.00 0.11 54 1003.4
20260506044259 55 291 0.9 2.6 0.00 0.00 0.11 54 1003.0
20260506042759 55 284 0.9 1.7 0.00 0.00 0.11 54 1003.0
20260506041259 55 262 1.7 4.3 0.00 0.00 0.11 54 1002.7